Location: Niagara
(43.2500°N, 79.0670°W)
Time: 01:34:45
(UTC-04:00)

Tiangong 1 - Pass Details

Date: 09 October 2017
Orbit: 293 x 320 km, 42.8° (Epoch: 18 October)

Event Time Altitude Azimuth Distance (km) Brightness Sun altitude
Rises 19:08:55 0° 254° (WSW) 2,041 6.8 -5.5°
Reaches altitude 10° 19:10:54 10° 251° (WSW) 1,207 5.1 -5.9°
Maximum altitude 19:13:35 63° 169° (S) 352 0.8 -6.4°
Drops below altitude 10° 19:16:14 10° 87° (E) 1,194 2.9 -6.9°
Enters shadow 19:16:19 - 87° (E) 1,226 2.9 -6.9°
